Location: Igri�s
(42.2144°N, 0.4320°W)
Time: 09:37:48
(UTC+00:00)

Cosmos 1980 Rocket - Pass Details

Date: 13 August 2020
Orbit: 829 x 850 km, 71.0° (Epoch: 18 September)

Event Time Altitude Azimuth Distance (km) Brightness Sun altitude
Rises 21:01:48 0° 330° (NNW) 3,414 6.7 -19.3°
Reaches altitude 10° 21:04:20 10° 325° (NW) 2,472 5.8 -19.7°
Maximum altitude 21:09:44 47° 253° (WSW) 1,103 3.0 -20.4°
Enters shadow 21:13:03 22° 190° (S) 1,752 3.5 -20.8°
